{"data":{"norad_id":65022,"intl_designator":"2025-161H","name":"STARLINK-34789","alt_names":[],"object_type":"PAYLOAD","status":"ACTIVE","operator":null,"country":"US","launch_date":"2025-07-30","launch_site_code":"AFWTR","launch_vehicle":null,"mission":null,"orbit_class":"UNKNOWN","rcs_meters":null,"size_class":null,"mass_kg":null,"dimensions":null,"purposes":["comms"],"wikipedia_slug":null,"has_3d_model":false,"image_url":null,"decayed_at":null,"tle_current":{"epoch":"2026-05-25T03:40:53.315040Z","epoch_age_seconds":57714,"freshness":"FRESH","line1":"1 65022U 25161H   26145.15339485  .00012745  00000+0  44159-3 0  9990","line2":"2 65022  53.1611 299.2572 0001142 107.2855 252.8271 15.30208842 47029","mean_motion":15.30208842,"eccentricity":0.0001142,"inclination_deg":53.1611,"raan_deg":299.2572,"arg_perigee_deg":107.2855,"mean_anomaly_deg":252.8271,"bstar":0.00044159,"rev_number":4702,"period_min":94.104801937878,"perigee_km":474.40601913684,"apogee_km":475.97131871962,"semimajor_km":6853.3256689282,"source":"CELESTRAK","updated_at":"2026-05-25T13:38:20.668332Z"}}}